星链-3074 (STARLINK-3074 )

导读 | 豆包AI

STARLINK-3074是美国太空探索技术公司(SpaceX)星链星座的成员,于2021年9月14日发射入轨,属于星链组网卫星,主要为全球提供低延迟、高速率的卫星互联网服务,服务覆盖偏远地区、海洋、航空等传统网络难以覆盖的区域,是星链全球互联网星座部署的重要组成部分。

Basic Information
目录编号:
49170
目录名称:
STARLINK-3074
国际标识:
2021-082AS
轨道中心:
EARTH
卫星名称:
星链-3074
卫星全名:
星链-3074 (STARLINK-3074 )
卫星状态:
已陨落 最后检测时间 2024-12-18
发射日期:
2021-09-14 UTC
国别 :
美国 (US)
星等 :
--
Orbit Information
数据来源 国际轨道数据
星历时间: 2024-12-18T06:47:47+0800
轨道信息已过期498天
半长轴: 6520.832km
偏心率: 0.0006404
轨道倾角: 69.978°
近地点辐角 243.406°
升交点赤经 323.972°
平近点角 239.760°
近地点: 138.521km
远地点: 146.873km
周期: 87.340分钟
每日圈数: 16.487253
Detailed Information
固有亮度:
5
最大亮度:
2.5
卫星平台:
Starlink v1.5
覆盖范围:
全球
运营商:
太空探索技术公司
运营商所在国:
美国
制造商(研发单位):
太空探索技术公司
制造商所在国:
美国
使用方式:
暂无
Satellite Introduction
星链(Starlink)计划是由太空探索技术公司(SpaceX)提出的一个巨型低轨卫星互联网星座项目,计划在2019年至2024年间在太空搭建由约1.2万颗卫星组成的“星链”网络,其中1584颗将部署在地球上空550千米处的近地轨道,并从2020年开始工作。该卫星仍在工作。